[[{"header":{"parameterUnit":"m.s-1","parameterCategory":1,"la1":30.2991,"la2":30.254,"lo1":-89.0895,"lo2":-89.0444,"dy":0.0017,"dx":0.0017,"nx":28,"ny":28,"refTime":"2024-08-25T21:00:00:Z","depth":0,"parameterNumber":2,"parameterNumberName":"U-component_of_WINDS"},"data":[0,0,0,0,0,0,0,0,0,0,0,0,0,0,0,0,0,0,0,0,0,0,0,0,0,0,0,0,0,0,0,0,0,0,0,0,0,0,0,0,0,0,0,0,0,0,0,0,0,0,0,0,0,0,0,0,0,0,1.4062,1.4062,0,1.4103,1.4103,1.4104,1.4102,1.4101,1.4101,1.41,1.4139,1.414,1.4142,0,0,0,0,0,0,0,0,0,0,0,0,0,1.3979,1.3981,1.4062,1.4062,1.4063,1.4103,1.4103,1.4104,1.4102,1.4101,1.41,1.41,1.4138,1.414,1.4142,0,0,0,0,0,0,0,0,0,0,0,0,0,1.4017,1.3981,1.4062,1.4067,1.4068,1.4102,1.4103,1.4104,1.4102,1.4101,1.41,1.41,1.4137,1.414,1.4142,1.4173,0,0,1.4149,1.415,0,0,0,0,0,0,0,0,1.4015,1.402,1.4065,1.4066,1.4067,1.4096,1.4088,1.4127,1.4102,1.4089,1.41,1.4099,1.4125,1.4128,1.4138,1.4175,1.4177,1.4149,1.4151,1.4152,1.4152,0,0,0,0,0,0,0,1.4012,1.4018,1.4078,1.4066,1.4067,1.4066,1.4071,1.4096,1.4111,1.409,1.409,1.4095,1.4125,1.4135,1.4139,1.4177,1.4149,1.4151,1.4153,1.4154,1.4243,1.4244,0,0,0,0,0,0,1.4009,1.4016,1.4076,1.4079,1.4039,1.4068,1.4073,1.4088,1.4111,1.4114,1.4096,1.4095,1.4132,1.4136,1.414,1.4178,1.4152,1.4154,1.4155,1.4242,1.4244,1.4245,0,0,0,0,0,0,1.4007,1.4015,1.4075,1.4048,1.4055,1.4071,1.4087,1.4089,1.4099,1.4115,1.4118,1.4103,1.4131,1.4137,1.4165,1.418,1.4155,1.4157,1.4241,1.4243,1.4244,1.4255,0,0,0,0,0,0,1.4005,1.4014,1.4026,1.4048,1.4057,1.41,1.4088,1.4091,1.4104,1.4103,1.4123,1.4125,1.4131,1.4162,1.4168,1.4182,1.4159,1.424,1.4242,1.4244,1.4254,1.4257,1.426,0,0,0,0,0,1.4002,1.4027,1.4027,1.4034,1.4073,1.4101,1.4106,1.4113,1.4105,1.4117,1.4128,1.4125,1.4178,1.4165,1.4171,1.4187,1.4239,1.4241,1.4244,1.4252,1.4256,1.426,0,0,0,0,0,0,1.4005,1.403,1.403,1.4063,1.408,1.4101,1.4116,1.4117,1.4136,1.4134,1.4141,1.4146,1.4174,1.4184,1.4169,1.4219,1.4207,1.4211,1.4212,1.4216,1.4219,1.4215,1.4161,0,0,0,0,0,1.401,1.4031,1.4052,1.4079,1.4088,1.4101,1.4113,1.4117,1.4135,1.4142,1.4154,1.4171,1.4191,1.4204,1.4223,1.4256,1.426,1.427,1.4273,1.4275,1.4278,1.4296,1.43,1.4252,1.4252,1.4252,0,0,1.4019,1.4035,1.4048,1.408,1.4093,1.4115,1.4107,1.413,1.4146,1.4145,1.4173,1.4183,1.4202,1.4233,1.4247,1.4241,1.4292,1.4278,1.428,1.4281,1.4298,1.4303,1.4307,1.4254,1.4253,1.4253,0,0,1.4047,1.4062,1.4086,1.4101,1.4122,1.4131,1.4137,1.4159,1.4165,1.4195,1.4195,1.4213,1.4248,1.4262,1.4273,1.4309,1.4306,1.4315,1.433,1.4347,1.4351,1.4355,1.4367,1.4371,1.4318,1.4318,1.4318,0,1.4055,1.4089,1.4098,1.4122,1.4136,1.4138,1.4162,1.4176,1.4202,1.4211,1.4205,1.425,1.4262,1.4297,1.4306,1.4315,1.4321,1.4312,1.435,1.4354,1.4357,1.4369,1.4373,1.4318,1.4318,1.4318,1.4318,0,1.4098,1.4121,1.4138,1.4166,1.4181,1.4205,1.4218,1.4232,1.4236,1.4245,1.4275,1.4291,1.4314,1.4323,1.4325,1.4357,1.4353,1.4349,1.4337,1.4362,1.4373,1.4378,1.432,1.4319,1.4319,1.4319,0,0,1.4126,1.416,1.4166,1.4179,1.4204,1.4222,1.4246,1.4271,1.4283,1.4302,1.4322,1.4352,1.4349,1.4362,1.4366,1.4382,1.4409,1.4375,1.4376,1.438,1.4445,1.4447,1.4452,1.4408,1.4409,1.441,1.4443,0,1.4156,1.4201,1.421,1.4248,1.427,1.4273,1.4295,1.4312,1.4322,1.4341,1.4352,1.4373,1.4367,1.4375,1.4391,1.4402,1.4421,1.44,1.4426,1.4427,1.442,1.4458,1.4461,1.4491,1.4447,1.4448,1.4449,0,1.4197,1.4218,1.4258,1.4282,1.4291,1.431,1.4334,1.4353,1.4372,1.4379,1.4394,1.4398,1.4423,1.4411,1.4445,1.443,1.4442,1.4449,1.4451,1.4452,1.4438,1.446,1.4501,1.4505,1.4456,1.4455,1.4455,0,1.4213,1.4252,1.4281,1.4292,1.432,1.4334,1.4346,1.4365,1.4379,1.44,1.4409,1.4431,1.4443,1.4461,1.447,1.4461,1.4503,1.4492,1.4508,1.4508,1.4516,1.4515,1.4558,1.4525,1.4525,1.4525,1.4525,0,1.4245,1.4269,1.4289,1.4307,1.4334,1.4346,1.4372,1.4384,1.4402,1.4422,1.4426,1.4444,1.4456,1.4476,1.4484,1.4511,1.4516,1.4521,1.4523,1.452,1.452,1.4527,1.4525,1.4526,1.4526,1.4526,1.4525,0,1.4266,1.4281,1.4313,1.4338,1.4345,1.4364,1.4385,1.4402,1.4413,1.4438,1.4445,1.4462,1.4486,1.4497,1.4526,1.4531,1.4562,1.4562,1.4555,1.4556,1.4571,1.4569,1.462,1.4627,1.459,1.459,1.459,0,1.4285,1.4304,1.4332,1.4346,1.4359,1.4382,1.4397,1.441,1.4425,1.445,1.4464,1.4489,1.4509,1.4547,1.4561,1.4584,1.4584,1.46,1.4587,1.4584,1.4583,1.4582,1.4584,1.4602,1.4602,1.4603,1.4603,0,1.4316,1.4323,1.4345,1.4371,1.4389,1.4409,1.4429,1.444,1.4456,1.4473,1.4498,1.4514,1.4545,1.4569,1.4593,1.4605,1.4606,1.4607,1.4612,1.4609,1.4604,1.4606,1.4561,1.4606,1.4605,1.4605,1.4605,1.4605,1.4337,1.4354,1.4377,1.4402,1.4418,1.4437,1.4455,1.4469,1.4491,1.4518,1.4524,1.4551,1.4571,1.4604,1.4616,1.4637,1.4633,1.464,1.4642,1.4643,1.4644,1.4602,1.4641,1.4641,1.4641,1.4641,1.4641,0,1.4368,1.4383,1.4406,1.4435,1.4454,1.4456,1.4479,1.4495,1.4519,1.4538,1.4559,1.4588,1.4612,1.4629,1.4653,1.4666,1.4668,1.4672,1.467,1.4673,1.4646,1.4639,1.4671,1.4671,1.4671,1.4671,1.4671,1.4671,1.4386,1.4416,1.4426,1.4464,1.4479,1.4506,1.4519,1.4536,1.4552,1.4585,1.4605,1.4617,1.4636,1.4661,1.4683,1.4688,1.4696,1.47,1.4704,1.4678,1.4675,1.4672,1.4666,1.4702,1.4702,1.473,1.473,1.473]},{"header":{"parameterUnit":"m.s-1","parameterCategory":1,"la1":30.2991,"la2":30.254,"lo1":-89.0895,"lo2":-89.0444,"dy":0.0017,"dx":0.0017,"nx":28,"ny":28,"refTime":"2024-08-25T21:00:00:Z","depth":0,"parameterNumber":3,"parameterNumberName":"V-component_of_WINDS"},"data":[0,0,0,0,0,0,0,0,0,0,0,0,0,0,0,0,0,0,0,0,0,0,0,0,0,0,0,0,0,0,0,0,0,0,0,0,0,0,0,0,0,0,0,0,0,0,0,0,0,0,0,0,0,0,0,0,0,0,-2.4911,-2.4912,0,-2.4977,-2.4977,-2.4978,-2.4964,-2.4963,-2.4962,-2.4961,-2.5023,-2.5026,-2.5029,0,0,0,0,0,0,0,0,0,0,0,0,0,-2.4771,-2.4774,-2.4911,-2.4912,-2.4913,-2.4976,-2.4977,-2.4978,-2.4964,-2.4963,-2.4961,-2.496,-2.5023,-2.5026,-2.5029,0,0,0,0,0,0,0,0,0,0,0,0,0,-2.4833,-2.4774,-2.4911,-2.4914,-2.4915,-2.4976,-2.4977,-2.4978,-2.4965,-2.4963,-2.4961,-2.4959,-2.5021,-2.5026,-2.503,-2.5092,0,0,-2.5042,-2.5044,0,0,0,0,0,0,0,0,-2.483,-2.4839,-2.4913,-2.4914,-2.4915,-2.496,-2.4951,-2.5016,-2.4965,-2.4946,-2.4961,-2.4958,-2.5004,-2.5009,-2.5025,-2.5095,-2.5097,-2.5043,-2.5045,-2.5047,-2.5048,0,0,0,0,0,0,0,-2.4826,-2.4836,-2.4937,-2.4914,-2.4915,-2.491,-2.4917,-2.4963,-2.4984,-2.4947,-2.4946,-2.4954,-2.5004,-2.5021,-2.5027,-2.5098,-2.5043,-2.5046,-2.5049,-2.5051,-2.5221,-2.5223,0,0,0,0,0,0,-2.4821,-2.4832,-2.4935,-2.4939,-2.4867,-2.4914,-2.4922,-2.4948,-2.4983,-2.4987,-2.4956,-2.4954,-2.5015,-2.5022,-2.5029,-2.5103,-2.5047,-2.5051,-2.5053,-2.5219,-2.5221,-2.5223,0,0,0,0,0,0,-2.4818,-2.483,-2.4932,-2.4885,-2.4898,-2.4919,-2.4947,-2.495,-2.4967,-2.499,-2.4993,-2.497,-2.5014,-2.5023,-2.5076,-2.5105,-2.5053,-2.5057,-2.5217,-2.522,-2.5222,-2.5253,0,0,0,0,0,0,-2.4814,-2.4829,-2.4854,-2.4886,-2.4901,-2.498,-2.4949,-2.4952,-2.4975,-2.4972,-2.5004,-2.5008,-2.5013,-2.507,-2.508,-2.511,-2.506,-2.5214,-2.5218,-2.5221,-2.5249,-2.5257,-2.5263,0,0,0,0,0,-2.4809,-2.4859,-2.4855,-2.4867,-2.4932,-2.4982,-2.499,-2.4996,-2.4977,-2.5002,-2.5016,-2.5007,-2.5101,-2.5076,-2.5087,-2.5119,-2.5212,-2.5217,-2.5221,-2.5246,-2.5255,-2.5263,0,0,0,0,0,0,-2.4828,-2.4863,-2.4859,-2.4921,-2.4949,-2.4979,-2.501,-2.5005,-2.5037,-2.5034,-2.5039,-2.5046,-2.5101,-2.5115,-2.5087,-2.518,-2.5154,-2.5161,-2.5169,-2.5177,-2.5184,-2.5179,-2.5064,0,0,0,0,0,-2.484,-2.4878,-2.4906,-2.4958,-2.4972,-2.4989,-2.5011,-2.5014,-2.5041,-2.5052,-2.5071,-2.5097,-2.5133,-2.5156,-2.519,-2.5252,-2.5258,-2.5279,-2.5286,-2.5291,-2.5297,-2.533,-2.5339,-2.5238,-2.5238,-2.5238,0,0,-2.4863,-2.4887,-2.4911,-2.4963,-2.4984,-2.5023,-2.4999,-2.504,-2.5069,-2.5058,-2.511,-2.5125,-2.5154,-2.5212,-2.5239,-2.5226,-2.5326,-2.5297,-2.5301,-2.5304,-2.5335,-2.5345,-2.5353,-2.5241,-2.5241,-2.524,0,0,-2.4927,-2.4949,-2.4995,-2.5017,-2.5051,-2.5062,-2.5073,-2.5104,-2.5114,-2.5166,-2.5159,-2.5192,-2.5253,-2.5275,-2.5294,-2.5366,-2.5358,-2.5377,-2.5411,-2.5443,-2.5451,-2.5458,-2.5483,-2.5492,-2.5382,-2.5382,-2.5382,0,-2.4952,-2.5011,-2.5019,-2.5062,-2.5084,-2.5078,-2.5124,-2.5145,-2.5187,-2.5202,-2.5188,-2.5264,-2.5284,-2.5346,-2.5364,-2.538,-2.5392,-2.5372,-2.545,-2.5457,-2.5463,-2.5487,-2.5497,-2.5384,-2.5384,-2.5384,-2.5384,0,-2.504,-2.5081,-2.5114,-2.5156,-2.5182,-2.5226,-2.524,-2.5265,-2.5266,-2.5278,-2.5331,-2.5354,-2.5393,-2.5408,-2.5408,-2.5471,-2.5461,-2.5449,-2.5422,-2.5475,-2.5497,-2.5507,-2.5387,-2.5387,-2.5386,-2.5385,0,0,-2.5116,-2.5163,-2.5175,-2.5194,-2.523,-2.5262,-2.5305,-2.5344,-2.5365,-2.5395,-2.5431,-2.5483,-2.5471,-2.5493,-2.5496,-2.5524,-2.5579,-2.5507,-2.5508,-2.5519,-2.5648,-2.5657,-2.5667,-2.5574,-2.5576,-2.5577,-2.5645,0,-2.5182,-2.526,-2.5268,-2.5337,-2.5375,-2.537,-2.5408,-2.5434,-2.5446,-2.5479,-2.5492,-2.5529,-2.5511,-2.5524,-2.5552,-2.5566,-2.5604,-2.5562,-2.5606,-2.5608,-2.5598,-2.5679,-2.5689,-2.5751,-2.5654,-2.5655,-2.5656,0,-2.5269,-2.5303,-2.5376,-2.5407,-2.5423,-2.5457,-2.5494,-2.5526,-2.5554,-2.5561,-2.5586,-2.5585,-2.5629,-2.5601,-2.5661,-2.5631,-2.565,-2.566,-2.5662,-2.5666,-2.5635,-2.5684,-2.5771,-2.578,-2.567,-2.5669,-2.5668,0,-2.5316,-2.5379,-2.5432,-2.5448,-2.5487,-2.551,-2.5527,-2.5555,-2.5578,-2.5609,-2.5624,-2.5659,-2.5679,-2.5706,-2.5714,-2.5693,-2.5773,-2.5746,-2.5779,-2.5779,-2.5795,-2.5794,-2.5886,-2.5809,-2.5808,-2.5808,-2.5808,0,-2.5389,-2.5433,-2.5453,-2.5485,-2.5535,-2.5544,-2.5592,-2.5608,-2.5633,-2.5666,-2.5664,-2.5695,-2.5705,-2.5738,-2.5745,-2.5793,-2.5802,-2.5807,-2.5809,-2.5807,-2.5806,-2.5819,-2.5814,-2.5811,-2.581,-2.581,-2.5809,0,-2.5449,-2.5465,-2.5521,-2.5553,-2.5562,-2.5597,-2.5624,-2.5654,-2.5667,-2.571,-2.572,-2.5739,-2.5778,-2.5789,-2.5835,-2.584,-2.5895,-2.5893,-2.5886,-2.5886,-2.5917,-2.5914,-2.602,-2.6034,-2.5949,-2.5949,-2.595,0,-2.5494,-2.5529,-2.5565,-2.5588,-2.5607,-2.5644,-2.5668,-2.5678,-2.5702,-2.5738,-2.5764,-2.5802,-2.5834,-2.5895,-2.5912,-2.5947,-2.5945,-2.598,-2.595,-2.5948,-2.5945,-2.5942,-2.5945,-2.5985,-2.5986,-2.5987,-2.5987,0,-2.5572,-2.5578,-2.5613,-2.5651,-2.568,-2.571,-2.5738,-2.5757,-2.5771,-2.5799,-2.5839,-2.5864,-2.5911,-2.5949,-2.5985,-2.6001,-2.5996,-2.5997,-2.6006,-2.6005,-2.5999,-2.6002,-2.59,-2.5994,-2.5993,-2.5993,-2.5993,-2.5992,-2.5625,-2.5656,-2.5686,-2.5725,-2.5748,-2.5775,-2.5805,-2.5822,-2.5856,-2.5897,-2.5901,-2.5944,-2.5971,-2.6019,-2.6037,-2.607,-2.606,-2.6074,-2.6077,-2.608,-2.6082,-2.5995,-2.6077,-2.6077,-2.6077,-2.6076,-2.6076,0,-2.5702,-2.5722,-2.5758,-2.5799,-2.5829,-2.5824,-2.5856,-2.5881,-2.592,-2.5947,-2.5978,-2.6024,-2.6061,-2.6081,-2.6118,-2.614,-2.6139,-2.615,-2.6147,-2.6151,-2.609,-2.6078,-2.615,-2.615,-2.615,-2.615,-2.615,-2.615,-2.5745,-2.5796,-2.5806,-2.5868,-2.5887,-2.5931,-2.5949,-2.5974,-2.5996,-2.6048,-2.6079,-2.6092,-2.6116,-2.6155,-2.6188,-2.6193,-2.6206,-2.6217,-2.6221,-2.6163,-2.6155,-2.6148,-2.6137,-2.622,-2.6221,-2.6279,-2.628,-2.628]}]]